Airfield :
LOGIN :

Register | Disclaimer

   EN    FR    IT 

 










Legend :    VFR   Marginal VFR   IFR   Intensive IFR   Very Intensive IFR
Visi :
Ceiling :
>= 8 km
>= 3000ft
5 to 8 km
1000 to 3000 ft
1500m to 5 km
500 to 1000 ft
800 to 1500m
200 to 500 ft
< 800m
< 200 ft
Symbols :   Thunderstorms  Fog  Heavy snow  Heavy precipitations  Wind > 20 kt
SIGMETs :     Misc.  Thunderstorms  Icing  Turbulence  Mountain Waves  Volcanic Ashes







- Airport Elevation : 239 ft
- IATA code : VRN


LIPX - Villafranca Int. Verona

CURRENT METAR :
  • 161850Z 23005KT CAVOK 27/13 Q1012

EXPIRED METARs :
  • 161820Z 22006KT CAVOK 28/13 Q1012
  • 161750Z 21007KT CAVOK 29/10 Q1012
  • 161720Z 25006KT CAVOK 31/10 Q1012
  • 161650Z 25007KT 210V270 CAVOK 31/10 Q1012
  • 161620Z 27006KT 230V300 CAVOK 31/09 Q1012

TAF TAF LIPX
Valid from the 16 at 18:00 until the 17 at 03:00 UTC


161700Z 1618/1703 VRB05KT CAVOK
No reported NOTAMs for that airfield.



MET'MAP, your aeronautical weather chart ! - Copyright ORBIFLY December 2007 - Disclaimer

ORBIFLY MET'MAP TEAM :

Programming & Development : Alexandra Zaïnal
Concept & Development : Baudouin d'Aumeries
Co-Development & Prog : Marc-Olivier Méhu
Technical & hardware support : Manuel Goepfert

Contact : metmap@orbifly.com




SOURCES & CREDITS :

   NOAA